Location: Balsareny
(41.8670°N, 1.8830°E)
Time: 05:47:29
(UTC+01:00)

Hubble Space Telescope - Visible Passes

Search period start: 22 March 2019 00:00
Search period end: 01 April 2019 01:00
Orbit: 537 x 540 km, 28.5° (Epoch: 21 March)

Date Brightness Start Highest point End Pass type
(mag) Time Alt. Az. Time Alt. Az. Time Alt. Az.
26 Mar 3.2 20:57:30 10° SSW 20:58:03 11° S 20:58:03 11° S visible
27 Mar 3.0 20:46:43 10° SSW 20:48:17 12° S 20:48:17 12° S visible
28 Mar 2.9 20:36:01 10° SSW 20:37:52 13° S 20:38:29 12° S visible
29 Mar 3.0 20:25:26 10° SSW 20:27:14 13° S 20:28:39 11° SSE visible
30 Mar 3.1 20:14:55 10° SSW 20:16:37 12° S 20:18:17 10° SSE visible
31 Mar 3.1 21:04:32 10° SSW 21:05:59 12° S 21:07:25 10° SSE visible
